Volver al catálogo

COSMOS 2375

GLONASS

LostNavegaciónMEO
NORAD 26564·PAYLOAD·🇷🇺 Russia

Lanzado Oct 13, 2000 desde Baikonur Cosmodrome

Loading…

Próximos Pases (próximas 24 horas)

TLE

ObsoletoSource: Space-Track

Época: Aug 2, 2026, 06:50 UTC

1 26564U 00063A   26214.28510922 -.00000040  00000-0  00000+0 0  9990
2 26564  65.1695 312.2525 0006363  15.1049 344.9639  2.13101779200769

Sigue COSMOS 2375 en tiempo real con AllMySat

Download on the App Store